Year,Month,Day,Hour,Minute,Value (Times are PST for temperature in C)
2018,08,20,00,00,13.30
2018,08,20,00,01,13.30
2018,08,20,00,02,13.30
2018,08,20,00,03,13.30
2018,08,20,00,04,13.30
2018,08,20,00,05,13.30
2018,08,20,00,06,13.30
2018,08,20,00,07,13.30
2018,08,20,00,08,13.30
2018,08,20,00,09,13.30
2018,08,20,00,10,13.20
2018,08,20,00,11,13.20
2018,08,20,00,12,13.20
2018,08,20,00,13,13.20
2018,08,20,00,14,13.20
2018,08,20,00,15,13.20
2018,08,20,00,16,13.20
2018,08,20,00,17,13.20
2018,08,20,00,18,13.20
2018,08,20,00,19,13.20
2018,08,20,00,20,13.20
2018,08,20,00,21,13.20
2018,08,20,00,22,13.20
2018,08,20,00,23,13.20
2018,08,20,00,24,13.20
2018,08,20,00,25,13.20
2018,08,20,00,26,13.20
2018,08,20,00,27,13.20
2018,08,20,00,28,13.20
2018,08,20,00,29,13.20
2018,08,20,00,30,13.20
2018,08,20,00,31,13.10
2018,08,20,00,32,13.10
2018,08,20,00,33,13.20
2018,08,20,00,34,13.20
2018,08,20,00,35,13.10
2018,08,20,00,36,13.10
2018,08,20,00,37,13.10
2018,08,20,00,38,13.10
2018,08,20,00,39,13.10
2018,08,20,00,40,13.10
2018,08,20,00,41,13.10
2018,08,20,00,42,13.10
2018,08,20,00,43,13.10
2018,08,20,00,44,13.10
2018,08,20,00,45,13.10
2018,08,20,00,46,13.10
2018,08,20,00,47,13.10
2018,08,20,00,48,13.10
2018,08,20,00,49,13.10
2018,08,20,00,50,13.10
2018,08,20,00,51,13.10
2018,08,20,00,52,13.10
2018,08,20,00,53,13.10
2018,08,20,00,54,13.10
2018,08,20,00,55,13.10
2018,08,20,00,56,13.10
2018,08,20,00,57,13.10
2018,08,20,00,58,13.10
2018,08,20,00,59,13.10
2018,08,20,01,00,13.10
2018,08,20,01,01,13.10
2018,08,20,01,02,13.00
2018,08,20,01,03,13.00
2018,08,20,01,04,13.00
2018,08,20,01,05,13.00
2018,08,20,01,06,13.00
2018,08,20,01,07,13.00
2018,08,20,01,08,13.00
2018,08,20,01,09,13.00
2018,08,20,01,10,13.00
2018,08,20,01,11,13.00
2018,08,20,01,12,12.90
2018,08,20,01,13,12.90
2018,08,20,01,14,12.90
2018,08,20,01,15,12.90
2018,08,20,01,16,12.90
2018,08,20,01,17,12.90
2018,08,20,01,18,12.90
2018,08,20,01,19,12.90
2018,08,20,01,20,12.90
2018,08,20,01,21,12.90
2018,08,20,01,22,12.80
2018,08,20,01,23,12.80
2018,08,20,01,24,12.80
2018,08,20,01,25,12.80
2018,08,20,01,26,12.80
2018,08,20,01,27,12.80
2018,08,20,01,28,12.80
2018,08,20,01,29,12.80
2018,08,20,01,30,12.80
2018,08,20,01,31,12.80
2018,08,20,01,32,12.80
2018,08,20,01,33,12.80
2018,08,20,01,34,12.80
2018,08,20,01,35,12.80
2018,08,20,01,36,12.80
2018,08,20,01,37,12.80
2018,08,20,01,38,12.80
2018,08,20,01,39,12.80
2018,08,20,01,40,12.80
2018,08,20,01,41,12.80
2018,08,20,01,42,12.80
2018,08,20,01,43,12.80
2018,08,20,01,44,12.80
2018,08,20,01,45,12.80
2018,08,20,01,46,12.70
2018,08,20,01,47,12.70
2018,08,20,01,48,12.70
2018,08,20,01,49,12.70
2018,08,20,01,50,12.70
2018,08,20,01,51,12.70
2018,08,20,01,52,12.70
2018,08,20,01,53,12.70
2018,08,20,01,54,12.70
2018,08,20,01,55,12.60
2018,08,20,01,56,12.60
2018,08,20,01,57,12.60
2018,08,20,01,58,12.60
2018,08,20,01,59,12.60
2018,08,20,02,00,12.60
2018,08,20,02,01,12.60
2018,08,20,02,02,12.50
2018,08,20,02,03,12.50
2018,08,20,02,04,12.50
2018,08,20,02,05,12.50
2018,08,20,02,06,12.50
2018,08,20,02,07,12.50
2018,08,20,02,08,12.50
2018,08,20,02,09,12.50
2018,08,20,02,10,12.50
2018,08,20,02,11,12.50
2018,08,20,02,12,12.50
2018,08,20,02,13,12.50
2018,08,20,02,14,12.50
2018,08,20,02,15,12.50
2018,08,20,02,16,12.50
2018,08,20,02,17,12.50
2018,08,20,02,18,12.50
2018,08,20,02,19,12.50
2018,08,20,02,20,12.50
2018,08,20,02,21,12.50
2018,08,20,02,22,12.40
2018,08,20,02,23,12.40
2018,08,20,02,24,12.40
2018,08,20,02,25,12.40
2018,08,20,02,26,12.40
2018,08,20,02,27,12.40
2018,08,20,02,28,12.40
2018,08,20,02,29,12.40
2018,08,20,02,30,12.40
2018,08,20,02,31,12.40
2018,08,20,02,32,12.40
2018,08,20,02,33,12.40
2018,08,20,02,34,12.40
2018,08,20,02,35,12.40
2018,08,20,02,36,12.30
2018,08,20,02,37,12.30
2018,08,20,02,38,12.30
2018,08,20,02,39,12.30
2018,08,20,02,40,12.30
2018,08,20,02,41,12.30
2018,08,20,02,42,12.30
2018,08,20,02,43,12.30
2018,08,20,02,44,12.30
2018,08,20,02,45,12.30
2018,08,20,02,46,12.30
2018,08,20,02,47,12.30
2018,08,20,02,48,12.20
2018,08,20,02,49,12.20
2018,08,20,02,50,12.20
2018,08,20,02,51,12.20
2018,08,20,02,52,12.20
2018,08,20,02,53,12.20
2018,08,20,02,54,12.20
2018,08,20,02,55,12.20
2018,08,20,02,56,12.20
2018,08,20,02,57,12.20
2018,08,20,02,58,12.20
2018,08,20,02,59,12.20
2018,08,20,03,00,12.20
2018,08,20,03,01,12.20
2018,08,20,03,02,12.20
2018,08,20,03,03,12.20
2018,08,20,03,04,12.20
2018,08,20,03,05,12.30
2018,08,20,03,06,12.30
2018,08,20,03,07,12.30
2018,08,20,03,08,12.30
2018,08,20,03,09,12.30
2018,08,20,03,10,12.30
2018,08,20,03,11,12.30
2018,08,20,03,12,12.30
2018,08,20,03,13,12.30
2018,08,20,03,14,12.30
2018,08,20,03,15,12.30
2018,08,20,03,16,12.30
2018,08,20,03,17,12.30
2018,08,20,03,18,12.30
2018,08,20,03,19,12.30
2018,08,20,03,20,12.30
2018,08,20,03,21,12.30
2018,08,20,03,22,12.30
2018,08,20,03,23,12.30
2018,08,20,03,24,12.30
2018,08,20,03,25,12.30
2018,08,20,03,26,12.30
2018,08,20,03,27,12.30
2018,08,20,03,28,12.30
2018,08,20,03,29,12.30
2018,08,20,03,30,12.30
2018,08,20,03,31,12.30
2018,08,20,03,32,12.30
2018,08,20,03,33,12.30
2018,08,20,03,34,12.40
2018,08,20,03,35,12.40
2018,08,20,03,36,12.40
2018,08,20,03,37,12.40
2018,08,20,03,38,12.50
2018,08,20,03,39,12.50
2018,08,20,03,40,12.50
2018,08,20,03,41,12.60
2018,08,20,03,42,12.60
2018,08,20,03,43,12.60
2018,08,20,03,44,12.60
2018,08,20,03,45,12.60
2018,08,20,03,46,12.70
2018,08,20,03,47,12.70
2018,08,20,03,48,12.70
2018,08,20,03,49,12.70
2018,08,20,03,50,12.70
2018,08,20,03,51,12.70
2018,08,20,03,52,12.70
2018,08,20,03,53,12.80
2018,08,20,03,54,12.80
2018,08,20,03,55,12.80
2018,08,20,03,56,12.80
2018,08,20,03,57,12.80
2018,08,20,03,58,12.80
2018,08,20,03,59,12.80
2018,08,20,04,00,12.90
2018,08,20,04,01,12.90
2018,08,20,04,02,12.90
2018,08,20,04,03,12.90
2018,08,20,04,04,13.00
2018,08,20,04,05,13.00
2018,08,20,04,06,13.00
2018,08,20,04,07,13.10
2018,08,20,04,08,13.10
2018,08,20,04,09,13.10
2018,08,20,04,10,13.10
2018,08,20,04,11,13.20
2018,08,20,04,12,13.20
2018,08,20,04,13,13.20
2018,08,20,04,14,13.20
2018,08,20,04,15,13.30
2018,08,20,04,16,13.30
2018,08,20,04,17,13.30
2018,08,20,04,18,13.30
2018,08,20,04,19,13.30
2018,08,20,04,20,13.40
2018,08,20,04,21,13.40
2018,08,20,04,22,13.40
2018,08,20,04,23,13.40
2018,08,20,04,24,13.40
2018,08,20,04,25,13.50
2018,08,20,04,26,13.50
2018,08,20,04,27,13.50
2018,08,20,04,28,13.60
2018,08,20,04,29,13.60
2018,08,20,04,30,13.60
2018,08,20,04,31,13.60
2018,08,20,04,32,13.60
2018,08,20,04,33,13.70
2018,08,20,04,34,13.70
2018,08,20,04,35,13.70
2018,08,20,04,36,13.70
2018,08,20,04,37,13.70
2018,08,20,04,38,13.70
2018,08,20,04,39,13.70
2018,08,20,04,40,13.70
2018,08,20,04,41,13.70
2018,08,20,04,42,13.70
2018,08,20,04,43,13.70
2018,08,20,04,44,13.70
2018,08,20,04,45,13.70
2018,08,20,04,46,13.70
2018,08,20,04,47,13.70
2018,08,20,04,48,13.70
2018,08,20,04,49,13.70
2018,08,20,04,50,13.70
2018,08,20,04,51,13.70
2018,08,20,04,52,13.70
2018,08,20,04,53,13.70
2018,08,20,04,54,13.70
2018,08,20,04,55,13.70
2018,08,20,04,56,13.70
2018,08,20,04,57,13.70
2018,08,20,04,58,13.80
2018,08,20,04,59,13.80
2018,08,20,05,00,13.80
2018,08,20,05,01,13.80
2018,08,20,05,02,13.80
2018,08,20,05,03,13.80
2018,08,20,05,04,13.80
2018,08,20,05,05,13.80
2018,08,20,05,06,13.80
2018,08,20,05,07,13.90
2018,08,20,05,08,13.90
2018,08,20,05,09,13.90
2018,08,20,05,10,13.90
2018,08,20,05,11,13.90
2018,08,20,05,12,13.90
2018,08,20,05,13,13.90
2018,08,20,05,14,13.90
2018,08,20,05,15,13.90
2018,08,20,05,16,13.90
2018,08,20,05,17,13.90
2018,08,20,05,18,13.90
2018,08,20,05,19,13.90
2018,08,20,05,20,13.90
2018,08,20,05,21,13.90
2018,08,20,05,22,13.90
2018,08,20,05,23,13.90
2018,08,20,05,24,13.90
2018,08,20,05,25,13.90
2018,08,20,05,26,13.90
2018,08,20,05,27,13.90
2018,08,20,05,28,13.90
2018,08,20,05,29,14.00
2018,08,20,05,30,14.00
2018,08,20,05,31,14.00
2018,08,20,05,32,14.00
2018,08,20,05,33,14.00
2018,08,20,05,34,14.00
2018,08,20,05,35,14.00
2018,08,20,05,36,14.00
2018,08,20,05,37,14.00
2018,08,20,05,38,14.00
2018,08,20,05,39,14.00
2018,08,20,05,40,13.90
2018,08,20,05,41,13.90
2018,08,20,05,42,14.00
2018,08,20,05,43,14.00
2018,08,20,05,44,14.00
2018,08,20,05,45,14.00
2018,08,20,05,46,14.00
2018,08,20,05,47,14.10
2018,08,20,05,48,14.10
2018,08,20,05,49,14.10
2018,08,20,05,50,14.10
2018,08,20,05,51,14.10
2018,08,20,05,52,14.10
2018,08,20,05,53,14.10
2018,08,20,05,54,14.10
2018,08,20,05,55,14.10
2018,08,20,05,56,14.10
2018,08,20,05,57,14.10
2018,08,20,05,58,14.10
2018,08,20,05,59,14.10
2018,08,20,06,00,14.10
2018,08,20,06,01,14.10
2018,08,20,06,02,14.10
2018,08,20,06,03,14.10
2018,08,20,06,04,14.10
2018,08,20,06,05,14.10
2018,08,20,06,06,14.10
2018,08,20,06,07,14.00
2018,08,20,06,08,14.00
2018,08,20,06,09,14.00
2018,08,20,06,10,13.90
2018,08,20,06,11,13.90
2018,08,20,06,12,13.90
2018,08,20,06,13,14.00
2018,08,20,06,14,14.00
2018,08,20,06,15,14.00
2018,08,20,06,16,14.00
2018,08,20,06,17,14.10
2018,08,20,06,18,14.10
2018,08,20,06,19,14.10
2018,08,20,06,20,14.10
2018,08,20,06,21,14.10
2018,08,20,06,22,14.10
2018,08,20,06,23,14.20
2018,08,20,06,24,14.20
2018,08,20,06,25,14.20
2018,08,20,06,26,14.20
2018,08,20,06,27,14.20
2018,08,20,06,28,14.20
2018,08,20,06,29,14.20
2018,08,20,06,30,14.20
2018,08,20,06,31,14.20
2018,08,20,06,32,14.20
2018,08,20,06,33,14.20
2018,08,20,06,34,14.20
2018,08,20,06,35,14.20
2018,08,20,06,36,14.20
2018,08,20,06,37,14.20
2018,08,20,06,38,14.20
2018,08,20,06,39,14.20
2018,08,20,06,40,14.20
2018,08,20,06,41,14.20
2018,08,20,06,42,14.20
2018,08,20,06,43,14.20
2018,08,20,06,44,14.20
2018,08,20,06,45,14.20
2018,08,20,06,46,14.20
2018,08,20,06,47,14.10
2018,08,20,06,48,14.10
2018,08,20,06,49,14.10
2018,08,20,06,50,14.10
2018,08,20,06,51,14.10
2018,08,20,06,52,14.10
2018,08,20,06,53,14.10
2018,08,20,06,54,14.10
2018,08,20,06,55,14.10
2018,08,20,06,56,14.10
2018,08,20,06,57,14.10
2018,08,20,06,58,14.10
2018,08,20,06,59,14.10
2018,08,20,07,00,14.10
2018,08,20,07,01,14.10
2018,08,20,07,02,14.10
2018,08,20,07,03,14.10
2018,08,20,07,04,14.10
2018,08,20,07,05,14.00
2018,08,20,07,06,14.00
2018,08,20,07,07,14.00
2018,08,20,07,08,14.00
2018,08,20,07,09,14.00
2018,08,20,07,10,14.00
2018,08,20,07,11,14.00
2018,08,20,07,12,13.90
2018,08,20,07,13,13.90
2018,08,20,07,14,13.90
2018,08,20,07,15,13.90
2018,08,20,07,16,13.90
2018,08,20,07,17,13.90
2018,08,20,07,18,13.90
2018,08,20,07,19,13.90
2018,08,20,07,20,13.90
2018,08,20,07,21,13.90
2018,08,20,07,22,13.90
2018,08,20,07,23,13.90
2018,08,20,07,24,13.90
2018,08,20,07,25,14.00
2018,08,20,07,26,14.00
2018,08,20,07,27,13.90
2018,08,20,07,28,14.00
2018,08,20,07,29,14.00
2018,08,20,07,30,14.00
2018,08,20,07,31,14.00
2018,08,20,07,32,14.00
2018,08,20,07,33,14.00
2018,08,20,07,34,14.00
2018,08,20,07,35,14.00
2018,08,20,07,36,14.00
2018,08,20,07,37,14.10
2018,08,20,07,38,14.10
2018,08,20,07,39,14.10
2018,08,20,07,40,14.10
2018,08,20,07,41,14.10
2018,08,20,07,42,14.20
2018,08,20,07,43,14.20
2018,08,20,07,44,14.20
2018,08,20,07,45,14.20
2018,08,20,07,46,14.20
2018,08,20,07,47,14.30
2018,08,20,07,48,14.30
2018,08,20,07,49,14.30
2018,08,20,07,50,14.30
2018,08,20,07,51,14.30
2018,08,20,07,52,14.30
2018,08,20,07,53,14.40
2018,08,20,07,54,14.40
2018,08,20,07,55,14.40
2018,08,20,07,56,14.40
2018,08,20,07,57,14.40
2018,08,20,07,58,14.50
2018,08,20,07,59,14.50
2018,08,20,08,00,14.60
2018,08,20,08,01,14.60
2018,08,20,08,02,14.60
2018,08,20,08,03,14.60
2018,08,20,08,04,14.70
2018,08,20,08,05,14.70
2018,08,20,08,06,14.80
2018,08,20,08,07,14.80
2018,08,20,08,08,14.80
2018,08,20,08,09,14.80
2018,08,20,08,10,14.90
2018,08,20,08,11,14.90
2018,08,20,08,12,15.00
2018,08,20,08,13,15.00
2018,08,20,08,14,15.10
2018,08,20,08,15,15.10
2018,08,20,08,16,15.10
2018,08,20,08,17,15.10
2018,08,20,08,18,15.20
2018,08,20,08,19,15.20
2018,08,20,08,20,15.30
2018,08,20,08,21,15.30
2018,08,20,08,22,15.30
2018,08,20,08,23,15.40
2018,08,20,08,24,15.40
2018,08,20,08,25,15.50
2018,08,20,08,26,15.50
2018,08,20,08,27,15.60
2018,08,20,08,28,15.60
2018,08,20,08,29,15.70
2018,08,20,08,30,15.80
2018,08,20,08,31,15.80
2018,08,20,08,32,15.90
2018,08,20,08,33,16.00
2018,08,20,08,34,16.00
2018,08,20,08,35,16.10
2018,08,20,08,36,16.20
2018,08,20,08,37,16.20
2018,08,20,08,38,16.30
2018,08,20,08,39,16.30
2018,08,20,08,40,16.40
2018,08,20,08,41,16.40
2018,08,20,08,42,16.50
2018,08,20,08,43,16.60
2018,08,20,08,44,16.60
2018,08,20,08,45,16.70
2018,08,20,08,46,16.80
2018,08,20,08,47,16.80
2018,08,20,08,48,16.90
2018,08,20,08,49,17.00
2018,08,20,08,50,17.00
2018,08,20,08,51,17.10
2018,08,20,08,52,17.20
2018,08,20,08,53,17.20
2018,08,20,08,54,17.30
2018,08,20,08,55,17.40
2018,08,20,08,56,17.40
2018,08,20,08,57,17.50
2018,08,20,08,58,17.50
2018,08,20,08,59,17.60
2018,08,20,09,00,17.70
2018,08,20,09,01,17.70
2018,08,20,09,02,17.80
2018,08,20,09,03,17.80
2018,08,20,09,04,17.90
2018,08,20,09,05,17.90
2018,08,20,09,06,18.00
2018,08,20,09,07,18.10
2018,08,20,09,08,18.10
2018,08,20,09,09,18.20
2018,08,20,09,10,18.20
2018,08,20,09,11,18.30
2018,08,20,09,12,18.30
2018,08,20,09,13,18.40
2018,08,20,09,14,18.40
2018,08,20,09,15,18.50
2018,08,20,09,16,18.50
2018,08,20,09,17,18.60
2018,08,20,09,18,18.60
2018,08,20,09,19,18.70
2018,08,20,09,20,18.80
2018,08,20,09,21,18.80
2018,08,20,09,22,18.90
2018,08,20,09,23,18.90
2018,08,20,09,24,19.00
2018,08,20,09,25,19.00
2018,08,20,09,26,19.10
2018,08,20,09,27,19.10
2018,08,20,09,28,19.20
2018,08,20,09,29,19.20
2018,08,20,09,30,19.20
2018,08,20,09,31,19.30
2018,08,20,09,32,19.30
2018,08,20,09,33,19.40
2018,08,20,09,34,19.50
2018,08,20,09,35,19.50
2018,08,20,09,36,19.60
2018,08,20,09,37,19.60
2018,08,20,09,38,19.70
2018,08,20,09,39,19.80
2018,08,20,09,40,19.80
2018,08,20,09,41,19.90
2018,08,20,09,42,19.90
2018,08,20,09,43,20.00
2018,08,20,09,44,20.10
2018,08,20,09,45,20.20
2018,08,20,09,46,20.20
2018,08,20,09,47,20.20
2018,08,20,09,48,20.30
2018,08,20,09,49,20.40
2018,08,20,09,50,20.40
2018,08,20,09,51,20.50
2018,08,20,09,52,20.60
2018,08,20,09,53,20.60
2018,08,20,09,54,20.70
2018,08,20,09,55,20.80
2018,08,20,09,56,20.80
2018,08,20,09,57,20.90
2018,08,20,09,58,20.90
2018,08,20,09,59,21.00
2018,08,20,10,00,21.10
2018,08,20,10,01,21.20
2018,08,20,10,02,21.20
2018,08,20,10,03,21.30
2018,08,20,10,04,21.40
2018,08,20,10,05,21.50
2018,08,20,10,06,21.50
2018,08,20,10,07,21.60
2018,08,20,10,08,21.60
2018,08,20,10,09,21.70
2018,08,20,10,10,21.80
2018,08,20,10,11,21.80
2018,08,20,10,12,21.80
2018,08,20,10,13,21.90
2018,08,20,10,14,21.90
2018,08,20,10,15,22.00
2018,08,20,10,16,22.10
2018,08,20,10,17,22.10
2018,08,20,10,18,22.20
2018,08,20,10,19,22.30
2018,08,20,10,20,22.30
2018,08,20,10,21,22.30
2018,08,20,10,22,22.40
2018,08,20,10,23,22.40
2018,08,20,10,24,22.40
2018,08,20,10,25,22.50
2018,08,20,10,26,22.50
2018,08,20,10,27,22.60
2018,08,20,10,28,22.60
2018,08,20,10,29,22.60
2018,08,20,10,30,22.60
2018,08,20,10,31,22.70
2018,08,20,10,32,22.70
2018,08,20,10,33,22.70
2018,08,20,10,34,22.70
2018,08,20,10,35,22.80
2018,08,20,10,36,22.80
2018,08,20,10,37,22.80
2018,08,20,10,38,22.80
2018,08,20,10,39,22.90
2018,08,20,10,40,22.90
2018,08,20,10,41,22.90
2018,08,20,10,42,22.90
2018,08,20,10,43,22.90
2018,08,20,10,44,22.90
2018,08,20,10,45,23.00
2018,08,20,10,46,23.00
2018,08,20,10,47,23.10
2018,08,20,10,48,23.10
2018,08,20,10,49,23.20
2018,08,20,10,50,23.30
2018,08,20,10,51,23.30
2018,08,20,10,52,23.40
2018,08,20,10,53,23.50
2018,08,20,10,54,23.60
2018,08,20,10,55,23.70
2018,08,20,10,56,23.80
2018,08,20,10,57,23.80
2018,08,20,10,58,23.90
2018,08,20,10,59,23.90
2018,08,20,11,00,23.90
2018,08,20,11,01,23.90
2018,08,20,11,02,24.00
2018,08,20,11,03,24.00
2018,08,20,11,04,24.10
2018,08,20,11,05,24.10
2018,08,20,11,06,24.20
2018,08,20,11,07,24.20
2018,08,20,11,08,24.30
2018,08,20,11,09,24.30
2018,08,20,11,10,24.30
2018,08,20,11,11,24.30
2018,08,20,11,12,24.30
2018,08,20,11,13,24.30
2018,08,20,11,14,24.30
2018,08,20,11,15,24.30
2018,08,20,11,16,24.30
2018,08,20,11,17,24.40
2018,08,20,11,18,24.40
2018,08,20,11,19,24.40
2018,08,20,11,20,24.40
2018,08,20,11,21,24.40
2018,08,20,11,22,24.50
2018,08,20,11,23,24.50
2018,08,20,11,24,24.60
2018,08,20,11,25,24.60
2018,08,20,11,26,24.60
2018,08,20,11,27,24.70
2018,08,20,11,28,24.80
2018,08,20,11,29,24.80
2018,08,20,11,30,24.90
2018,08,20,11,31,25.00
2018,08,20,11,32,25.10
2018,08,20,11,33,25.10
2018,08,20,11,34,25.20
2018,08,20,11,35,25.30
2018,08,20,11,36,25.30
2018,08,20,11,37,25.40
2018,08,20,11,38,25.40
2018,08,20,11,39,25.40
2018,08,20,11,40,25.50
2018,08,20,11,41,25.50
2018,08,20,11,42,25.60
2018,08,20,11,43,25.60
2018,08,20,11,44,25.60
2018,08,20,11,45,25.70
2018,08,20,11,46,25.70
2018,08,20,11,47,25.70
2018,08,20,11,48,25.60
2018,08,20,11,49,25.60
2018,08,20,11,50,25.60
2018,08,20,11,51,25.60
2018,08,20,11,52,25.60
2018,08,20,11,53,25.60
2018,08,20,11,54,25.50
2018,08,20,11,55,25.50
2018,08,20,11,56,25.50
2018,08,20,11,57,25.40
2018,08,20,11,58,25.40
2018,08,20,11,59,25.40
2018,08,20,12,00,25.40
2018,08,20,12,01,25.40
2018,08,20,12,02,25.40
2018,08,20,12,03,25.40
2018,08,20,12,04,25.30
2018,08,20,12,05,25.30
2018,08,20,12,06,25.30
2018,08,20,12,07,25.30
2018,08,20,12,08,25.30
2018,08,20,12,09,25.30
2018,08,20,12,10,25.30
2018,08,20,12,11,25.30
2018,08,20,12,12,25.40
2018,08,20,12,13,25.40
2018,08,20,12,14,25.50
2018,08,20,12,15,25.40
2018,08,20,12,16,25.40
2018,08,20,12,17,25.40
2018,08,20,12,18,25.40
2018,08,20,12,19,25.40
2018,08,20,12,20,25.40
2018,08,20,12,21,25.40
2018,08,20,12,22,25.40
2018,08,20,12,23,25.40
2018,08,20,12,24,25.40
2018,08,20,12,25,25.40
2018,08,20,12,26,25.40
2018,08,20,12,27,25.50
2018,08,20,12,28,25.50
2018,08,20,12,29,25.60
2018,08,20,12,30,25.70
2018,08,20,12,31,25.80
2018,08,20,12,32,25.80
2018,08,20,12,33,25.90
2018,08,20,12,34,26.00
2018,08,20,12,35,26.10
2018,08,20,12,36,26.20
2018,08,20,12,37,26.20
2018,08,20,12,38,26.30
2018,08,20,12,39,26.40
2018,08,20,12,40,26.50
2018,08,20,12,41,26.50
2018,08,20,12,42,26.60
2018,08,20,12,43,26.60
2018,08,20,12,44,26.70
2018,08,20,12,45,26.70
2018,08,20,12,46,26.70
2018,08,20,12,47,26.80
2018,08,20,12,48,26.80
2018,08,20,12,49,26.80
2018,08,20,12,50,26.70
2018,08,20,12,51,26.70
2018,08,20,12,52,26.60
2018,08,20,12,53,26.60
2018,08,20,12,54,26.60
2018,08,20,12,55,26.50
2018,08,20,12,56,26.50
2018,08,20,12,57,26.50
2018,08,20,12,58,26.50
2018,08,20,12,59,26.50
2018,08,20,13,00,26.40
2018,08,20,13,01,26.40
2018,08,20,13,02,26.40
2018,08,20,13,03,26.30
2018,08,20,13,04,26.30
2018,08,20,13,05,26.40
2018,08,20,13,06,26.40
2018,08,20,13,07,26.40
2018,08,20,13,08,26.40
2018,08,20,13,09,26.50
2018,08,20,13,10,26.50
2018,08,20,13,11,26.50
2018,08,20,13,12,26.50
2018,08,20,13,13,26.50
2018,08,20,13,14,26.50
2018,08,20,13,15,26.50
2018,08,20,13,16,26.50
2018,08,20,13,17,26.50
2018,08,20,13,18,26.50
2018,08,20,13,19,26.50
2018,08,20,13,20,26.40
2018,08,20,13,21,26.30
2018,08,20,13,22,26.30
2018,08,20,13,23,26.20
2018,08,20,13,24,26.10
2018,08,20,13,25,26.10
2018,08,20,13,26,26.00
2018,08,20,13,27,26.00
2018,08,20,13,28,26.00
2018,08,20,13,29,25.90
2018,08,20,13,30,25.90
2018,08,20,13,31,25.90
2018,08,20,13,32,26.00
2018,08,20,13,33,26.00
2018,08,20,13,34,26.10
2018,08,20,13,35,26.10
2018,08,20,13,36,26.20
2018,08,20,13,37,26.20
2018,08,20,13,38,26.30
2018,08,20,13,39,26.30
2018,08,20,13,40,26.30
2018,08,20,13,41,26.40
2018,08,20,13,42,26.40
2018,08,20,13,43,26.40
2018,08,20,13,44,26.50
2018,08,20,13,45,26.60
2018,08,20,13,46,26.60
2018,08,20,13,47,26.60
2018,08,20,13,48,26.70
2018,08,20,13,49,26.70
2018,08,20,13,50,26.80
2018,08,20,13,51,26.80
2018,08,20,13,52,26.80
2018,08,20,13,53,26.80
2018,08,20,13,54,26.90
2018,08,20,13,55,26.90
2018,08,20,13,56,26.90
2018,08,20,13,57,26.90
2018,08,20,13,58,26.90
2018,08,20,13,59,27.00
2018,08,20,14,00,27.00
2018,08,20,14,01,27.10
2018,08,20,14,02,27.10
2018,08,20,14,03,27.10
2018,08,20,14,04,27.20
2018,08,20,14,05,27.20
2018,08,20,14,06,27.30
2018,08,20,14,07,27.30
2018,08,20,14,08,27.30
2018,08,20,14,09,27.30
2018,08,20,14,10,27.40
2018,08,20,14,11,27.40
2018,08,20,14,12,27.50
2018,08,20,14,13,27.50
2018,08,20,14,14,27.60
2018,08,20,14,15,27.60
2018,08,20,14,16,27.60
2018,08,20,14,17,27.70
2018,08,20,14,18,27.70
2018,08,20,14,19,27.80
2018,08,20,14,20,27.90
2018,08,20,14,21,27.90
2018,08,20,14,22,28.00
2018,08,20,14,23,28.00
2018,08,20,14,24,28.10
2018,08,20,14,25,28.10
2018,08,20,14,26,28.10
2018,08,20,14,27,28.10
2018,08,20,14,28,28.10
2018,08,20,14,29,28.10
2018,08,20,14,30,28.10
2018,08,20,14,31,28.20
2018,08,20,14,32,28.20
2018,08,20,14,33,28.20
2018,08,20,14,34,28.20
2018,08,20,14,35,28.20
2018,08,20,14,36,28.20
2018,08,20,14,37,28.30
2018,08,20,14,38,28.30
2018,08,20,14,39,28.30
2018,08,20,14,40,28.30
2018,08,20,14,41,28.40
2018,08,20,14,42,28.40
2018,08,20,14,43,28.40
2018,08,20,14,44,28.40
2018,08,20,14,45,28.50
2018,08,20,14,46,28.50
2018,08,20,14,47,28.60
2018,08,20,14,48,28.60
2018,08,20,14,49,28.60
2018,08,20,14,50,28.70
2018,08,20,14,51,28.70
2018,08,20,14,52,28.80
2018,08,20,14,53,28.80
2018,08,20,14,54,28.90
2018,08,20,14,55,28.90
2018,08,20,14,56,28.90
2018,08,20,14,57,28.90
2018,08,20,14,58,28.90
2018,08,20,14,59,29.00
2018,08,20,15,00,29.00
2018,08,20,15,01,29.00
2018,08,20,15,02,29.10
2018,08,20,15,03,29.10
2018,08,20,15,04,29.10
2018,08,20,15,05,29.10
2018,08,20,15,06,29.10
2018,08,20,15,07,29.10
2018,08,20,15,08,29.10
2018,08,20,15,09,29.10
2018,08,20,15,10,29.10
2018,08,20,15,11,29.10
2018,08,20,15,12,29.10
2018,08,20,15,13,29.20
2018,08,20,15,14,29.20
2018,08,20,15,15,29.20
2018,08,20,15,16,29.20
2018,08,20,15,17,29.20
2018,08,20,15,18,29.20
2018,08,20,15,19,29.30
2018,08,20,15,20,29.30
2018,08,20,15,21,29.30
2018,08,20,15,22,29.30
2018,08,20,15,23,29.30
2018,08,20,15,24,29.40
2018,08,20,15,25,29.40
2018,08,20,15,26,29.40
2018,08,20,15,27,29.40
2018,08,20,15,28,29.50
2018,08,20,15,29,29.50
2018,08,20,15,30,29.50
2018,08,20,15,31,29.50
2018,08,20,15,32,29.50
2018,08,20,15,33,29.50
2018,08,20,15,34,29.50
2018,08,20,15,35,29.50
2018,08,20,15,36,29.50
2018,08,20,15,37,29.50
2018,08,20,15,38,29.40
2018,08,20,15,39,29.40
2018,08,20,15,40,29.40
2018,08,20,15,41,29.40
2018,08,20,15,42,29.40
2018,08,20,15,43,29.40
2018,08,20,15,44,29.40
2018,08,20,15,45,29.40
2018,08,20,15,46,29.40
2018,08,20,15,47,29.40
2018,08,20,15,48,29.30
2018,08,20,15,49,29.30
2018,08,20,15,50,29.30
2018,08,20,15,51,29.30
2018,08,20,15,52,29.40
2018,08,20,15,53,29.40
2018,08,20,15,54,29.40
2018,08,20,15,55,29.40
2018,08,20,15,56,29.40
2018,08,20,15,57,29.50
2018,08,20,15,58,29.50
2018,08,20,15,59,29.50
2018,08,20,16,00,29.50
2018,08,20,16,01,29.60
2018,08,20,16,02,29.60
2018,08,20,16,03,29.60
2018,08,20,16,04,29.60
2018,08,20,16,05,29.50
2018,08,20,16,06,29.50
2018,08,20,16,07,29.50
2018,08,20,16,08,29.50
2018,08,20,16,09,29.50
2018,08,20,16,10,29.50
2018,08,20,16,11,29.50
2018,08,20,16,12,29.60
2018,08,20,16,13,29.60
2018,08,20,16,14,29.60
2018,08,20,16,15,29.60
2018,08,20,16,16,29.60
2018,08,20,16,17,29.60
2018,08,20,16,18,29.60
2018,08,20,16,19,29.60
2018,08,20,16,20,29.60
2018,08,20,16,21,29.60
2018,08,20,16,22,29.60
2018,08,20,16,23,29.70
2018,08,20,16,24,29.70
2018,08,20,16,25,29.70
2018,08,20,16,26,29.70
2018,08,20,16,27,29.70
2018,08,20,16,28,29.70
2018,08,20,16,29,29.70
2018,08,20,16,30,29.70
2018,08,20,16,31,29.70
2018,08,20,16,32,29.70
2018,08,20,16,33,29.70
2018,08,20,16,34,29.70
2018,08,20,16,35,29.70
2018,08,20,16,36,29.70
2018,08,20,16,37,29.70
2018,08,20,16,38,29.70
2018,08,20,16,39,29.70
2018,08,20,16,40,29.70
2018,08,20,16,41,29.70
2018,08,20,16,42,29.70
2018,08,20,16,43,29.70
2018,08,20,16,44,29.70
2018,08,20,16,45,29.70
2018,08,20,16,46,29.70
2018,08,20,16,47,29.70
2018,08,20,16,48,29.70
2018,08,20,16,49,29.70
2018,08,20,16,50,29.70
2018,08,20,16,51,29.70
2018,08,20,16,52,29.70
2018,08,20,16,53,29.70
2018,08,20,16,54,29.70
2018,08,20,16,55,29.80
2018,08,20,16,56,29.80
2018,08,20,16,57,29.80
2018,08,20,16,58,29.80
2018,08,20,16,59,29.80
2018,08,20,17,00,29.80
2018,08,20,17,01,29.80
2018,08,20,17,02,29.80
2018,08,20,17,03,29.80
2018,08,20,17,04,29.80
2018,08,20,17,05,29.80
2018,08,20,17,06,29.70
2018,08,20,17,07,29.70
2018,08,20,17,08,29.70
2018,08,20,17,09,29.70
2018,08,20,17,10,29.70
2018,08,20,17,11,29.60
2018,08,20,17,12,29.60
2018,08,20,17,13,29.60
2018,08,20,17,14,29.60
2018,08,20,17,15,29.50
2018,08,20,17,16,29.50
2018,08,20,17,17,29.50
2018,08,20,17,18,29.40
2018,08,20,17,19,29.30